Unsubscribe Automatically:

[TLELIST] 0 HST 1 20580U 90037B 26264.01519126 .00004480 00000-0 13476-3 0 9999 2 20580 28.4729 145.1336 0001861 122.9731 237.1044 15.31706978803271 0 ISS (ZARYA) 1 25544U 98067A 26264.17466374 .00007601 00000-0 14494-3 0 9997 2 25544 51.6309 185.0320 0004778 163.5850 196.5294 15.49206805586633 0 CXO 1 25867U 99040B 26267.22283988 .00001017 00000-0 00000-0 0 9994 2 25867 57.5064 114.1177 7686103 309.2542 0.4828 0.37800426 17690